GW4500 Weather Reports


time (UTC)temp
C
wind
direction
speed
KPH
gust
KPH
rain 1hr
cm
rain 24hr
cm
rain mn
cm
humidity
%
barometer
mb
20260504100615 10 197 3.2 3.2 0.00 0.00 0.00 63 1015.8
20260504100113 10 202 4.8 8.0 0.00 0.00 0.00 63 1015.6
20260504081506 10 203 6.4 8.0 0.00 0.00 0.00 54 1016.6
20260504081002 10 235 8.0 11.3 0.00 0.00 0.00 53 1016.6
20260504080458 10 225 6.4 9.7 0.00 0.00 0.00 52 1016.9
20260504050311 11 199 4.8 4.8 0.00 0.00 0.00 47 1017.1
20260504045809 11 193 9.7 11.3 0.00 0.00 0.00 45 1017.3
20260504045308 11 211 4.8 8.0 0.00 0.00 0.00 46 1017.3
20260504044806 11 244 9.7 14.5 0.00 0.00 0.00 45 1017.3
20260504044303 11 239 12.9 14.5 0.00 0.00 0.00 46 1017.4
20260504043800 11 220 8.0 11.3 0.00 0.00 0.00 46 1017.2
20260504043257 11 204 4.8 4.8 0.00 0.00 0.00 47 1017.2
20260504042755 11 221 8.0 11.3 0.00 0.00 0.00 46 1017.1
20260504042251 11 221 6.4 8.0 0.00 0.00 0.00 46 1017.4
20260504041747 11 215 6.4 9.7 0.00 0.00 0.00 46 1017.4
20260504041243 11 221 4.8 8.0 0.00 0.00 0.00 46 1017.2
20260504040739 11 225 8.0 9.7 0.00 0.00 0.00 46 1017.0
20260504040237 11 200 8.0 11.3 0.00 0.00 0.00 47 1017.2
20260504035733 10 211 11.3 14.5 0.00 0.00 0.00 46 1017.3
20260504035231 10 226 8.0 11.3 0.00 0.00 0.00 47 1017.3
20260504034729 10 196 6.4 8.0 0.00 0.00 0.00 46 1017.3
20260504034226 10 213 6.4 9.7 0.00 0.00 0.00 47 1017.5
20260504033723 10 197 4.8 4.8 0.00 0.00 0.00 47 1017.4
20260504033220 10 190 8.0 9.7 0.00 0.00 0.00 47 1017.4
20260504032717 10 211 6.4 9.7 0.00 0.00 0.00 47 1017.3
20260504032214 10 211 4.8 4.8 0.00 0.00 0.00 48 1017.3
20260504031710 10 225 8.0 9.7 0.00 0.00 0.00 49 1017.3
20260504031208 10 182 6.4 8.0 0.00 0.00 0.00 47 1017.5
20260504030703 10 213 3.2 4.8 0.00 0.00 0.00 48 1017.5
20260504030201 10 183 8.0 9.7 0.00 0.00 0.00 47 1017.5
20260504025657 10 208 4.8 4.8 0.00 0.00 0.00 48 1017.4
20260504025154 10 221 6.4 8.0 0.00 0.00 0.00 48 1017.8
20260504024651 10 198 3.2 3.2 0.00 0.00 0.00 49 1017.6
20260504024147 10 225 4.8 8.0 0.00 0.00 0.00 48 1017.6
20260504023645 10 200 1.6 3.2 0.00 0.00 0.00 50 1017.7
20260504023140 10 197 3.2 3.2 0.00 0.00 0.00 49 1017.5
20260504022637 10 190 4.8 8.0 0.00 0.00 0.00 49 1017.4
20260504022133 10 200 3.2 3.2 0.00 0.00 0.00 50 1017.5
20260504021631 10 201 3.2 3.2 0.00 0.00 0.00 49 1017.7
20260504021127 10 216 4.8 4.8 0.00 0.00 0.00 49 1017.6
20260504020625 10 201 4.8 4.8 0.00 0.00 0.00 48 1017.4
20260504020120 10 210 1.6 1.6 0.00 0.00 0.00 50 1017.6
20260504015617 10 212 3.2 3.2 0.00 0.00 0.00 48 1017.5
20260504015113 10 201 3.2 3.2 0.00 0.00 0.00 47 1017.5
20260504014609 10 230 4.8 4.8 0.00 0.00 0.00 47 1017.7
20260504014107 10 207 3.2 3.2 0.00 0.00 0.00 47 1017.6
20260504013604 10 198 1.6 3.2 0.00 0.00 0.00 47 1017.5
20260504013101 10 228 1.6 3.2 0.00 0.00 0.00 47 1017.6
20260504012558 10 209 4.8 4.8 0.00 0.00 0.00 47 1017.5
20260504012056 10 197 3.2 4.8 0.00 0.00 0.00 48 1017.6
20260504011553 10 203 4.8 8.0 0.00 0.00 0.00 46 1017.5
20260504011049 11 221 3.2 3.2 0.00 0.00 0.00 46 1017.4
20260504010544 10 213 4.8 4.8 0.00 0.00 0.00 46 1017.4
20260504010041 10 200 4.8 4.8 0.00 0.00 0.00 46 1017.4
20260504005538 11 220 1.6 1.6 0.00 0.00 0.00 47 1017.4
20260504005035 10 216 3.2 3.2 0.00 0.00 0.00 45 1017.5
20260504004533 10 197 3.2 3.2 0.00 0.00 0.00 47 1017.2
20260504004030 10 197 3.2 3.2 0.00 0.00 0.00 48 1017.4
20260504003526 10 197 3.2 3.2 0.00 0.00 0.00 46 1017.1
20260504003023 10 208 1.6 1.6 0.00 0.00 0.00 46 1017.3
20260504002520 10 216 3.2 3.2 0.00 0.00 0.00 46 1017.5
20260504002017 10 201 3.2 3.2 0.00 0.00 0.00 46 1017.1
20260504001515 10 196 3.2 3.2 0.00 0.00 0.00 46 1017.2
20260504001011 11 212 1.6 1.6 0.00 0.00 0.00 45 1017.1
20260504000508 11 219 1.6 1.6 0.00 0.00 0.00 45 1017.3
20260504000005 11 226 3.2 3.2 0.00 0.00 0.00 45 1017.3
20260503235503 11 241 4.8 8.0 0.00 0.00 0.00 43 1017.4
20260503235000 11 222 1.6 1.6 0.00 0.00 0.00 44 1017.3
20260503234457 11 235 1.6 3.2 0.00 0.00 0.00 43 1017.3
20260503233955 11 226 1.6 3.2 0.00 0.00 0.00 44 1017.2
20260503233452 12 255 8.0 9.7 0.00 0.00 0.00 41 1017.2
20260503232948 12 216 3.2 4.8 0.00 0.00 0.00 42 1017.4
20260503232445 12 226 4.8 4.8 0.00 0.00 0.00 41 1017.3
20260503231943 12 231 4.8 4.8 0.00 0.00 0.00 41 1017.3
20260503231440 12 243 4.8 4.8 0.00 0.00 0.00 42 1017.5
20260503230937 12 258 6.4 9.7 0.00 0.00 0.00 40 1017.4
20260503230433 12 227 3.2 3.2 0.00 0.00 0.00 40 1017.3
20260503225931 12 257 3.2 4.8 0.00 0.00 0.00 40 1017.4
20260503225427 12 258 6.4 9.7 0.00 0.00 0.00 40 1017.5
20260503224923 13 259 9.7 12.9 0.00 0.00 0.00 39 1017.4
20260503224420 13 221 4.8 4.8 0.00 0.00 0.00 39 1017.5
20260503223918 13 242 8.0 12.9 0.00 0.00 0.00 39 1017.6
20260503223416 13 236 8.0 9.7 0.00 0.00 0.00 38 1017.5
20260503222916 13 248 4.8 4.8 0.00 0.00 0.00 39 1017.4
20260503222415 13 257 6.4 9.7 0.00 0.00 0.00 39 1017.5
20260503221913 13 302 3.2 4.8 0.00 0.00 0.00 39 1017.7
20260503221411 13 241 6.4 8.0 0.00 0.00 0.00 40 1017.4
20260503220907 13 240 4.8 8.0 0.00 0.00 0.00 39 1017.3
20260503220404 13 341 11.3 14.5 0.00 0.00 0.00 38 1017.5
20260503215900 13 261 1.6 3.2 0.00 0.00 0.00 40 1017.4
20260503215358 13 237 8.0 12.9 0.00 0.00 0.00 38 1017.7
20260503214855 13 263 9.7 12.9 0.00 0.00 0.00 39 1017.4
20260503214352 13 235 6.4 8.0 0.00 0.00 0.00 40 1017.4
20260503213850 13 241 3.2 4.8 0.00 0.00 0.00 39 1017.6
20260503213347 13 213 6.4 8.0 0.00 0.00 0.00 38 1017.4
20260503212844 12 241 3.2 3.2 0.00 0.00 0.00 39 1017.3
20260503212342 12 248 1.6 1.6 0.00 0.00 0.00 43 1017.6
20260503211839 13 233 8.0 11.3 0.00 0.00 0.00 40 1017.4
20260503211336 13 252 9.7 11.3 0.00 0.00 0.00 39 1017.5
20260503210831 13 224 1.6 3.2 0.00 0.00 0.00 39 1017.7
20260503210328 13 219 8.0 11.3 0.00 0.00 0.00 41 1017.4
20260503205823 13 311 9.7 12.9 0.00 0.00 0.00 40 1017.7
20260503205320 13 339 11.3 11.3 0.00 0.00 0.00 40 1017.7
20260503204817 13 247 9.7 11.3 0.00 0.00 0.00 41 1017.8
20260503204314 12 187 3.2 3.2 0.00 0.00 0.00 42 1017.8
20260503203811 12 238 14.5 16.1 0.00 0.00 0.00 40 1017.8
20260503203309 13 269 19.3 27.4 0.00 0.00 0.00 39 1017.7
20260503202805 12 228 3.2 3.2 0.00 0.00 0.00 40 1017.7
20260503202304 12 227 4.8 8.0 0.00 0.00 0.00 41 1018.0
20260503201801 12 227 8.0 11.3 0.00 0.00 0.00 41 1018.2
20260503201258 12 218 6.4 8.0 0.00 0.00 0.00 42 1018.1
20260503200755 13 358 8.0 8.0 0.00 0.00 0.00 38 1018.1
20260503200251 12 282 11.3 17.7 0.00 0.00 0.00 39 1018.2
20260503195748 12 333 11.3 12.9 0.00 0.00 0.00 39 1018.5
20260503195245 13 230 12.9 17.7 0.00 0.00 0.00 40 1018.5
20260503194743 12 266 11.3 12.9 0.00 0.00 0.00 40 1018.7
20260503194238 12 249 14.5 17.7 0.00 0.00 0.00 39 1018.7
20260503193734 13 235 11.3 16.1 0.00 0.00 0.00 41 1018.7
20260503193231 13 235 1.6 1.6 0.00 0.00 0.00 43 1018.7
20260503192726 13 229 4.8 4.8 0.00 0.00 0.00 44 1018.9
20260503192222 12 225 4.8 8.0 0.00 0.00 0.00 42 1019.0
20260503191719 12 236 8.0 11.3 0.00 0.00 0.00 41 1019.0
20260503191216 12 232 3.2 3.2 0.00 0.00 0.00 41 1018.9
20260503190713 12 334 8.0 11.3 0.00 0.00 0.00 43 1019.2
20260503190209 12 239 8.0 9.7 0.00 0.00 0.00 41 1019.1
20260503185707 12 264 8.0 11.3 0.00 0.00 0.00 40 1019.3
20260503185202 12 15 14.5 16.1 0.00 0.00 0.00 40 1019.2
20260503184657 12 286 11.3 14.5 0.00 0.00 0.00 44 1019.2
20260503184154 11 227 9.7 11.3 0.00 0.00 0.00 41 1019.3
20260503183649 12 229 9.7 12.9 0.00 0.00 0.00 43 1019.3
20260503183147 12 238 9.7 12.9 0.00 0.00 0.00 42 1019.5
20260503182645 11 232 12.9 14.5 0.00 0.00 0.00 41 1019.6
20260503182144 11 35 8.0 11.3 0.00 0.00 0.00 45 1019.3
20260503181640 11 218 1.6 1.6 0.00 0.00 0.00 41 1019.6
20260503181137 11 211 4.8 4.8 0.00 0.00 0.00 46 1019.4
20260503180634 12 253 14.5 17.7 0.00 0.00 0.00 40 1019.6
20260503180132 11 177 1.6 3.2 0.00 0.00 0.00 45 1019.6
20260503175629 10 315 9.7 14.5 0.00 0.00 0.00 45 1019.6
20260503175125 11 239 16.1 20.9 0.00 0.00 0.00 44 1019.9
20260503174622 11 255 4.8 4.8 0.00 0.00 0.00 41 1019.9
20260503174120 10 254 11.3 12.9 0.00 0.00 0.00 45 1020.0
20260503173614 11 293 8.0 9.7 0.00 0.00 0.00 44 1020.0
20260503173111 11 238 1.6 1.6 0.00 0.00 0.00 43 1020.0
20260503172608 11 314 12.9 16.1 0.00 0.00 0.00 45 1020.0
20260503172106 10 231 6.4 11.3 0.00 0.00 0.00 44 1019.9
20260503171601 10 177 6.4 9.7 0.00 0.00 0.00 47 1020.3
20260503171059 10 235 4.8 4.8 0.00 0.00 0.00 49 1020.1
20260503170555 10 241 4.8 8.0 0.00 0.00 0.00 48 1020.3
20260503150948 7 236 8.0 11.3 0.00 0.00 0.00 55 1021.2
20260503150444 7 213 3.2 4.8 0.00 0.00 0.00 54 1021.0
20260503131337 5 255 6.4 9.7 0.00 0.00 0.00 73 1021.2
20260503130835 5 240 6.4 9.7 0.00 0.00 0.00 73 1021.2
20260503130332 5 228 6.4 8.0 0.00 0.00 0.00 74 1021.2
20260503110726 1 195 1.6 1.6 0.00 0.00 0.00 91 1020.0
20260503110223 0 206 0.0 0.0 0.00 0.00 0.00 91 1020.3